This demonstration page uses our WeatherBlox Daily Observations layout. Learn more.

Left ArrowRight Arrow

Hourly Observations for August 20, 2015

Temp ( °F °C ) Dew Point ( °F °C ) Humidity (%) Winds ( mph kmh ) Pressure ( in mb ) Visibility ( mi km ) Precip ( " mm )
12:15 am 00:15 Clear 53 11.8 51 10.4 91 91 Calm 29.97 1015 10 16 N/A
12:35 am 00:35 Clear 53 11.5 51 10.5 94 94 Calm 29.97 1015 10 16 N/A
12:55 am 00:55 Clear 52 11.3 51 10.3 94 94 Calm 29.97 1015 10 16 N/A
1:15 am 01:15 Clear 52 10.9 50 9.9 94 94 Calm 29.97 1015 10 16 N/A
1:35 am 01:35 Clear with Mist and Fog 51 10.6 50 9.8 95 95 Calm 29.97 1015 5 8 N/A
1:55 am 01:55 Clear 50 10.2 49 9.3 94 94 Calm 29.97 1015 10 16 N/A
2:15 am 02:15 Clear 50 10 48 9.1 94 94 Calm 29.97 1015 10 16 N/A
2:35 am 02:35 Clear 50 10.1 49 9.4 95 95 Calm 29.97 1015 7 11 N/A
2:55 am 02:55 Clear 50 10 49 9.2 95 95 Calm 29.97 1015 10 16 N/A
3:15 am 03:15 Clear 49 9.7 48 9 95 95 N 3 6 29.97 1015 7 11 N/A
3:35 am 03:35 Clear with Mist and Fog 49 9.4 48 8.7 95 95 Calm 30.00 1016 5 8 N/A
3:55 am 03:55 Clear 48 8.8 47 8.2 96 96 ENE 3 6 30.00 1016 7 11 N/A
4:15 am 04:15 Clear 49 9.4 48 8.9 97 97 ENE 3 6 29.97 1015 7 11 N/A
4:35 am 04:35 Clear 48 8.9 47 8.4 97 97 ENE 3 6 30.00 1016 7 11 N/A
4:55 am 04:55 Clear with Mist and Fog 47 8.6 46 8 96 96 Calm 30.00 1016 5 8 N/A
5:15 am 05:15 Clear 48 9 47 8.4 96 96 ENE 3 6 30.00 1016 7 11 N/A
5:35 am 05:35 Clear 48 8.8 47 8.3 97 97 E 3 6 30.00 1016 7 11 N/A
5:55 am 05:55 Clear 48 8.9 47 8.4 97 97 E 3 6 30.00 1016 7 11 N/A
6:15 am 06:15 Clear 47 8.6 46 8 96 96 Calm 30.00 1016 10 16 N/A
6:35 am 06:35 Clear 48 8.9 47 8.4 97 97 E 3 6 29.97 1015 7 11 N/A
6:55 am 06:55 Sunny 47 8.5 46 8 97 97 E 3 6 29.97 1015 7 11 N/A
7:15 am 07:15 Sunny 48 9.1 47 8.6 97 97 Calm 30.00 1016 10 16 N/A
7:35 am 07:35 Sunny 49 9.2 48 8.7 97 97 ENE 3 6 30.00 1016 7 11 N/A
7:55 am 07:55 Sunny 51 10.7 50 10.2 97 97 Calm 29.97 1015 10 16 N/A
8:15 am 08:15 Sunny 53 11.7 52 11.1 96 96 Calm 29.94 1014 10 16 N/A
8:35 am 08:35 Sunny 56 13.2 54 12.4 95 95 Calm 29.91 1013 10 16 N/A
8:55 am 08:55 Sunny 58 14.5 56 13.3 93 93 Calm 29.91 1013 10 16 N/A
9:15 am 09:15 Sunny 61 16.2 58 14.5 90 90 Calm 29.88 1012 10 16 N/A
9:35 am 09:35 Sunny 65 18.4 58 14.7 79 79 SSW 5 7 29.88 1012 10 16 N/A
9:55 am 09:55 Sunny 68 20 60 15.5 75 75 SSW 7 11 29.85 1011 10 16 N/A
10:15 am 10:15 Sunny 69 20.6 58 14.6 69 69 SW 9 15 29.83 1010 10 16 N/A
10:35 am 10:35 Sunny 71 21.4 59 15.1 67 67 SSW 9 15 29.83 1010 10 16 N/A
10:55 am 10:55 Sunny 72 22.2 59 15.2 65 65 SSW 9 15 29.83 1010 10 16 N/A
11:15 am 11:15 Sunny 74 23.1 60 15.5 62 62 SSW 9 15 29.80 1009 10 16 N/A
11:35 am 11:35 Sunny 75 23.9 60 15.6 60 60 S 10 17 29.80 1009 10 16 N/A
11:55 am 11:55 Sunny 76 24.5 61 16 59 59 SSE 8 13 29.80 1009 10 16 N/A
12:15 pm 12:15 Sunny 78 25.4 61 16.1 56 56 S 16 26 29.77 1008 7 11 N/A
12:35 pm 12:35 Sunny 78 25.7 61 16.2 56 56 S 14 22 29.74 1007 10 16 N/A
12:55 pm 12:55 Sunny 79 26 61 16.3 55 55 SSE 16 26 29.74 1007 10 16 N/A
1:15 pm 13:15 Sunny 80 26.5 62 16.5 54 54 S 13 20 29.71 1006 10 16 N/A
1:35 pm 13:35 Sunny 81 27.4 61 15.9 49 49 S 16 26 29.71 1006 10 16 N/A
1:55 pm 13:55 Sunny 82 27.7 61 16.1 49 49 S 18 30 29.71 1006 10 16 N/A
2:15 pm 14:15 Sunny 82 27.9 61 15.9 48 48 S 17 28 29.71 1006 10 16 N/A
2:35 pm 14:35 Sunny 82 28 60 15.8 47 47 S 21 33 29.71 1006 10 16 N/A
2:55 pm 14:55 Sunny 83 28.5 62 16.4 48 48 S 16 26 29.65 1004 10 16 N/A
3:15 pm 15:15 Sunny 83 28.5 61 16.2 47 47 S 16 26 29.65 1004 10 16 N/A
3:35 pm 15:35 Sunny 83 28.5 61 16.2 47 47 S 18 30 29.65 1004 10 16 N/A
3:55 pm 15:55 Sunny 83 28.6 61 16.1 47 47 S 16 26 29.65 1004 10 16 N/A
4:15 pm 16:15 Sunny 84 28.9 61 16.2 46 46 S 14 22 29.65 1004 10 16 N/A
4:35 pm 16:35 Sunny 84 29 63 17.4 50 50 S 12 19 29.65 1004 10 16 N/A
4:55 pm 16:55 Sunny 84 28.7 62 16.8 49 49 S 20 31 29.62 1003 10 16 N/A
5:15 pm 17:15 Sunny 84 28.7 62 16.6 48 48 S 15 24 29.62 1003 10 16 N/A
5:35 pm 17:35 Sunny 83 28.6 62 16.5 48 48 S 14 22 29.62 1003 10 16 N/A
5:55 pm 17:55 Sunny 83 28.5 63 17.3 51 51 S 15 24 29.62 1003 10 16 N/A
6:15 pm 18:15 Sunny 83 28.1 62 16.4 49 49 S 14 22 29.65 1004 10 16 N/A
6:35 pm 18:35 Sunny 82 27.8 61 16 49 49 S 13 20 29.65 1004 10 16 N/A
6:55 pm 18:55 Sunny 81 27 60 15.5 49 49 S 12 19 29.65 1004 10 16 N/A
7:15 pm 19:15 Partly Cloudy 80 26.9 59 14.9 48 48 S 9 15 29.65 1004 10 16 N/A
7:35 pm 19:35 Partly Cloudy 79 26.3 60 15.3 51 51 S 10 17 29.65 1004 10 16 N/A
7:55 pm 19:55 Partly Cloudy 78 25.5 57 14 49 49 S 13 20 29.68 1005 10 16 N/A
8:15 pm 20:15 Partly Cloudy 78 25.4 56 13.6 48 48 S 12 19 29.71 1006 10 16 N/A
8:35 pm 20:35 Partly Cloudy 75 24.1 57 13.7 52 52 S 12 19 29.71 1006 10 16 N/A
8:55 pm 20:55 Clear 75 23.8 57 13.7 53 53 S 10 17 29.71 1006 10 16 N/A
9:15 pm 21:15 Partly Cloudy 73 23 57 14.1 57 57 S 10 17 29.71 1006 10 16 N/A
9:35 pm 21:35 Partly Cloudy 73 23 58 14.3 58 58 S 12 19 29.74 1007 10 16 N/A
9:55 pm 21:55 Partly Cloudy 73 22.5 58 14.5 61 61 S 14 22 29.74 1007 10 16 N/A
10:15 pm 22:15 Clear 72 22.2 58 14.3 61 61 S 14 22 29.74 1007 10 16 N/A
10:35 pm 22:35 Clear 73 22.5 58 14.2 60 60 S 13 20 29.74 1007 10 16 N/A
10:55 pm 22:55 Clear 72 22.2 58 14.3 61 61 S 17 28 29.80 1009 10 16 N/A
11:15 pm 23:15 Clear 71 21.7 58 14.2 63 63 S 13 20 29.80 1009 10 16 N/A
11:35 pm 23:35 Clear 71 21.5 57 14 62 62 S 15 24 29.80 1009 10 16 N/A
11:55 pm 23:55 Clear 71 21.4 56 13.6 61 61 S 14 22 29.80 1009 10 16 N/A

Powered by AerisWeather